Regional Weather Roundup
Issued by NWS Wakefield, VA

Home | Current Version | Previous Version | Graphics & Text | Print | Product List | Glossary On
Versions: 1 2 3 4 5 6 7 8 9 10 11 12 13 14 15 16 17 18 19 20 21 22 23 24 25 26 27 28 29 30 31 32 33 34 35 36 37 38 39 40 41 42 43 44 45 46 47 48 49
000
ASUS41 KAKQ 010913
RWRAKQ

REGIONAL WEATHER ROUNDUP
NATIONAL WEATHER SERVICE WAKEFIELD VA
500 AM EDT TUE SEP 01 2015

Note: "fair" indicates few or no clouds below 12,000 feet with no
significant weather and/or obstructions to visibility. * = Denotes
station may not report precipitation (e.g., rain,snow,etc.),
thunder or fog.

VAZ042-051-052>054-056-011000-
NORTHERN VIRGINIA

CITY           SKY/WX    TMP DP  RH WIND       PRES   REMARKS
WASH NATIONAL  PTCLDY    72  69  90 SW3       30.04F
DULLES         CLEAR     67  66  97 CALM      30.04F
FORT BELVOIR   CLEAR     68  66  94 CALM      30.03F FOG
QUANTICO       CLOUDY    72  68  87 W5        30.04F
FREDERICKSBRG* PTCLDY    71  71 100 CALM      30.03F
STAFFORD*      CLOUDY    69  67  95 CALM      30.08F
WARRENTON      MOCLDY    68  68 100 CALM      30.04F FOG
CULPEPER*      FOG       65  65 100 CALM      30.05F VSB 3/4
MANASSAS*      MOCLDY    66  64  94 CALM      30.04F
LEESBURG*      CLEAR     68  68 100 CALM      30.05F
WINCHESTER     CLEAR     64  63  94 CALM      30.07S
FRONT ROYAL*   FAIR      66  63  88 S3        30.07S
LURAY*         FAIR      63  63 100 CALM      30.09F
$$

VAZ048-049-060>072-079>083-011000-
CENTRAL AND SOUTH CENTRAL VIRGINIA

CITY           SKY/WX    TMP DP  RH WIND       PRES   REMARKS
RICHMOND       CLOUDY    73  69  87 CALM      30.04F
CHESTERFIELD*  CLOUDY    72  59  64 NW5       30.06F
PETERSBURG*    CLOUDY    73  73 100 NW3       30.06S
HANOVER        CLOUDY    70  69  97 W5        30.06F
TAPPAHANNOCK*  CLOUDY    70  67  92 CALM      30.05S FOG
QUINTON*       CLOUDY    71  69  95 W6        30.05R
CHARLOTTSVILLE CLEAR     65  63  93 CALM      30.06S
GORDONSVILLE*  FOG       68  68 100 CALM      30.05S VSB 1/2
ORANGE*        FOG       70  68  94 CALM      30.06F VSB 1/4
LOUISA*        FOG       70  70 100 CALM      30.04F VSB 3/4
BUMPASS*       CLOUDY    69  69  99 MISG      30.05S
FARMVILLE*     FOG       66  66 100 CALM      30.05S VSB<1/4
CREWE*         CLOUDY   N/A N/A N/A CALM      30.05F VSB 1/4
FORT PICKETT*  CLOUDY    69  68  98 W6        30.05F VSB 1/4
CHASE CITY*    CLOUDY    68  68 100 CALM      30.07S VSB 1/4
CLARKSVILLE*   CLOUDY    64  64 100 CALM      30.06S VSB 1/4
SOUTH HILL*    CLOUDY    70  70 100 CALM      30.11F
LAWRENCEVILLE* CLOUDY    70  70 100 CALM      30.05S
EMPORIA*       CLOUDY    70  70 100 CALM      30.07S FOG
$$

VAZ088>098-011000-
SOUTHEAST VIRGINIA

CITY           SKY/WX    TMP DP  RH WIND       PRES   REMARKS
NORFOLK        CLOUDY    74  70  87 CALM      30.04S
VIRGINIA BEACH CLOUDY    75  71  87 CALM      30.03F
NORFOLK NAVAL  MOCLDY    73  70  90 N3        30.05S
WEST POINT*    CLOUDY    74  70  87 CALM      30.06S
SALUDA*        CLOUDY    71  69  95 CALM      30.04S
NEWPORT NEWS   CLOUDY    73  71  93 CALM      30.04S
LANGLEY AFB    MOCLDY    72  70  94 NW1       30.03S
FORT EUSTIS    CLOUDY    74  74 100 W5        30.02F
WILLIAMSBURG*  PTCLDY    75  73  94 NW5       30.05S
HR EXEC AP*      N/A     66  64  94 CALM      30.06S VSB 1
FRANKLIN*      CLOUDY    71  70  98 CALM      30.05S
WAKEFIELD      CLOUDY    71  69  93 CALM      30.05S FOG
$$

VAZ020-022-025-037-045-011000-
WEST CENTRAL AND SOUTHWEST VIRGINIA

CITY           SKY/WX    TMP DP  RH WIND       PRES   REMARKS
STAUNTON*      CLEAR     63  61  92 CALM      30.13R
WAYNESBORO*    FAIR      64  61  91 CALM      30.12S
HOT SPRINGS VA CLEAR     66  61  84 NW7       30.23S
LYNCHBURG      CLEAR     63  63 100 CALM      30.09S FOG
DANVILLE       CLEAR     66  64  93 CALM      30.08S
SOUTH BOSTON*  CLOUDY    64  62  95 CALM      30.07S VSB 1/4
MARTINSVILLE   CLEAR     63  63 100 CALM      30.13R FOG
ROANOKE        CLEAR     66  64  93 CALM      30.13S
BLACKSBURG     CLEAR     61  61 100 CALM      30.20S FOG
DUBLIN*        MOCLDY    62  62 100 CALM      30.19R
MARION*        CLEAR     60  59  95 CALM      30.22S FOG
HILLSVILLE*    CLEAR     61  60  99 CALM      30.19R FOG
RICHLANDS*     FAIR      63  37  39 CALM      30.20F
WISE*          CLEAR     64  64 100 CALM      30.22S
ABINGDON*      CLEAR     66  62  86 E3        30.18S
$$

MDZ021>025-VAZ099-100-011000-
SOUTHERN MARYLAND AND THE DELMARVA PENINSULA

CITY           SKY/WX    TMP DP  RH WIND       PRES   REMARKS
PATUXENT RIVER CLEAR     67  66  97 CALM      30.03F
BAY BRIDGE APT   N/A     72  70  94 W5        30.03S
LEONARDTOWN    NOT AVBL
DOVER          CLEAR     72  72 100 SW6       30.01F
GEORGETOWN     CLEAR     68  67  96 SW3       30.04F
EASTON         NOT AVBL
CAMBRIDGE      CLEAR     70  66  88 CALM      30.03F
SALISBURY      CLEAR     66  64  93 CALM      30.03F
OCEAN CITY     CLEAR     70  68  93 W3        30.04S
WALLOPS ISLAND PTCLDY    70  69  97 CALM      30.04F
ACCOMACK*      CLOUDY    64  61  88 CALM      30.04S FOG
$$

NCZ012>017-030>032-011000-
NORTH CENTRAL AND EASTERN NORTH CAROLINA

CITY           SKY/WX    TMP DP  RH WIND       PRES   REMARKS
ROANOKE RAPIDS CLOUDY    70  70 100 NW5       30.05S FOG
RALEIGH        FOG       70  68  93 CALM      30.07F VSB 1/16
ELIZABETH CITY CLOUDY    74  72  93 N5        30.04R
AHOSKIE*       FOG       70  70  98 CALM      30.05S VSB 1/4
EDENTON*       CLOUDY    70  69  98 N5        30.04R FOG
CURRITUCK*     CLOUDY    73  71  93 CALM      30.04S
KILL DEVIL HLS MOCLDY    75  74  94 CALM      30.02S
MANTEO         CLOUDY    74  74  98 CALM      30.03S
CAPE HATTERAS  MOCLDY    77  75  93 NW3       30.01S
TARBORO*       CLOUDY    72  71  97 NW3       30.06S FOG
GOLDSBORO      FOG       73  73 100 NW5       30.03F VSB 3/4
WASHINGTON     CLOUDY    73  72  98 CALM      30.03S
GREENVILLE     CLOUDY    73  73 100 CALM      30.06S
NEW BERN       CLOUDY    75  73  93 NW3       30.04S
WILMINGTON     FOG       73  72  96 W6        30.05R VSB 3/4
$$

VAZ048-011000-
ELSEWHERE

CITY           SKY/WX    TMP DP  RH WIND       PRES   REMARKS
HARRISBURG PA  CLEAR     71  66  84 NW6       30.03S
BALTIMORE      CLEAR     70  68  93 W3        30.02F
ANNAPOLIS      CLEAR     72  70  93 CALM      30.02F
ANDREWS AFB    CLEAR     70  69  96 W3        30.03F
PHILADELPHIA   CLEAR     74  69  85 SW5       30.03S
HENDERSON NC   FOG       69  67  93 CALM      30.07S VSB 1/4
GREENSBORO     CLEAR     69  67  93 CALM      30.09S
ROCKY MOUNT    CLOUDY    72  71  97 NW5       30.05S FOG
$$

VAZ100-011000-
MARINE

STATION/POSITION TIME  TEMP    WIND        PRES    WAVE   SWELL
                       AIR SEA DIR/SP/G            HT/PER HT/PER
                 (UTC) (F)     (DEG/KT/KT) (MB)    (FT/S) (FT/S)
BRANDYWINE LGT   0800   74 76  260/ 13/ 14 1017.2
CAPE MAY NJ      0800   74 80  250/  9/ 11 1016.8
LEWES DE         0800   73 75  260/  6/  9 1016.9
15NM E FENWICK I 0850   75 78  260/ 10/ 12 1017.1F   2/ 9   2/ 9
OCEAN-CITY-INLET 0800   72 76  270/  5/  6 1016.4
THOMAS POINT MD  0900   73 78  270/  6/  7 1017.2
GOOSES REEF MD   0900   75 79  280/  6/  8 1017.7F
COVE POINT MD    0800   72     280/ 11/ 16 1017.7
SOLOMONS ISLAND  0800      80                N/A
BISHOPS HEAD MD  0800   75 77  260/  9/ 10 1016.4
PINEY POINT MD   0805          260/  3/  5   N/A
POTOMAC MD       0900   73 79  270/  6/  8 1015.9F   1
CAMBRIDGE MD     0800   71 80  180/  4/  4 1016.4
LEWISETTA VA     0800   71 79  300/  4/  5 1017.0
RAPPAHANNOCK LGT 0800          270/  8/  8 1017.7
STINGRAY PT      0900   74 79  280/  6/  8 1017.6F   0
YORK RVR RNG VA  0800   74     320/  8/  9 1016.7
YORKTOWN VA      0800   74 80  270/  4/  6 1016.8
JAMESTOWN VA     0900   73 81  320/  6/ 10   N/A
DOMINION TERM VA 0800   75     340/  4/  5 1017.1
KIPTOPEKE VA     0800      79   CALM  /  1   N/A
CHES BAY BRIDGE  0800   76 79  330/  1/  2 1016.7
CAPE HENRY VA    0800   74        CALM       N/A
CHESAPEAKE LGHT  0800   76        CALM     1018.0F
WILLOUBY STN VA  0800   75     350/  4/  5 1018.1
CAPE HENRY BUOY  0828      78                N/A     2/ 9
1ST LANDING BUOY 0900      79              1016.7F   1
CAPE CHARLES BUO 0826      78                N/A     2/ 8
OFFSHORE WE BUOY 0811      78                N/A     2/ 8   2/ 8
64NM E OF VA BCH 0850   77 78   70/  8/  8 1016.6F   2/ 8   2/ 8
DUCK PIER NC     0800   76 78  120/  7/  8 1016.1
44100 DUCK FRF   0824      78                N/A     2/ 8
44056 DUCK FRF   0811      78                N/A     2/ 9
OREGON INLET NC  0800   75 79  330/  4/  5 1016.4
HATTERAS NC      0800   78 80  230/  4/  6 1015.9
DIAMOND SHLS NC  0850   79 84  240/  4/  6 1016.4F   4/ 8   3/ 8
CAPE LOOKOUT NC  0900   76     310/ 10/ 13 1016.4R
$$



USA.gov is the U.S. government's official web portal to all federal, state and local government web resources and services.